SCP
0 0 0 0 0 0 0 0 0 0 1 1 1 1 1 1 1 2 2 3 4 5 5 5 6 8 11 13 11 7 5 5 5 4 4 4 4 4 3 3 3 3 3 3
0 0 0 0 0 0 0 0 0 0 1 1 1 1 1 1 1 2 2 3 4 5 6 7 8 10 13 13 10 7 5 5 5 4 4 4 4 4 4 3 3 4 4 4
0 0 0 0 0 0 0 0 0 0 0 1 1 1 1 1 2 2 2 3 4 5 8 10 11 11 13 12 9 7 6 6 5 5 5 5 4 4 4 4 4 4 5 5
0 0 0 0 0 0 0 0 0 0 0 0 1 1 1 2 2 2 3 4 4 5 7 10 10 10 10 8 7 6 6 6 6 6 5 5 5 4 4 4 4 5 5 6
0 0 0 0 0 0 0 0 0 0 0 0 0 1 1 2 2 3 4 4 3 4 6 8 8 7 7 6 5 6 7 7 7 6 6 5 5 5 4 4 5 6 6 6
0 0 0 0 0 0 0 0 0 0 0 0 0 0 1 2 2 3 4 4 3 3 5 7 7 6 6 6 5 6 7 7 7 7 6 6 6 5 5 5 6 6 5 6
0 0 0 0 0 0 0 0 0 0 0 0 0 0 1 2 2 4 4 3 3 4 6 7 6 7 7 7 8 8 8 8 8 8 8 8 7 6 5 6 7 7 6 6
0 0 0 0 0 0 0 0 0 0 0 0 0 0 1 2 3 3 3 2 2 4 6 7 8 9 10 10 10 11 11 10 8 8 9 9 8 7 6 7 9 9 9 8
0 0 0 0 0 0 0 0 0 0 0 0 0 1 1 1 2 2 2 2 2 3 5 8 10 11 12 11 10 11 11 11 10 9 8 8 8 7 7 8 10 12 11 11
0 0 0 0 0 0 0 0 0 0 0 0 0 1 1 1 1 2 2 2 2 3 5 7 9 10 10 9 8 9 11 12 11 9 8 7 7 7 7 8 9 11 11 11
0 0 0 0 0 0 0 0 0 0 1 0 1 1 1 2 2 2 3 3 4 4 5 7 8 8 7 6 6 8 10 11 9 8 7 7 7 7 7 7 7 8 9 9
0 0 0 0 0 0 0 0 1 1 1 1 1 1 2 3 3 4 4 5 6 6 8 9 8 7 7 6 7 8 9 9 8 7 6 7 7 8 8 7 6 6 7 8
0 0 0 0 0 0 0 0 0 1 1 1 1 1 2 3 4 5 6 7 7 9 11 11 10 8 7 7 8 8 8 7 6 6 7 8 8 8 8 7 5 5 6 7
0 0 1 0 0 0 0 0 0 0 1 1 1 2 2 3 4 7 8 7 7 9 12 13 11 9 8 8 8 8 7 6 7 7 8 9 8 7 6 6 6 6 6 6
1 1 1 1 0 0 0 0 0 0 0 0 1 2 3 5 7 9 9 7 7 10 12 12 11 9 7 7 7 7 7 8 9 9 8 7 6 6 6 7 7 7 7 7
1 1 1 1 1 0 0 0 0 0 0 1 1 2 5 8 10 10 8 8 8 10 11 10 9 7 6 6 6 7 8 9 9 7 6 5 5 6 6 6 7 7 7 7
1 1 1 1 1 1 0 0 1 1 2 2 3 4 6 8 9 8 7 7 9 10 10 9 7 6 5 5 6 7 8 7 6 5 4 4 4 5 5 5 5 6 6 6
1 1 1 1 1 1 1 1 1 2 3 4 5 5 6 7 7 7 6 7 8 9 8 7 6 5 4 5 6 7 7 6 5 4 4 3 3 3 4 4 4 4 5 5
1 1 1 1 1 1 1 2 2 3 4 5 5 6 7 7 7 6 7 7 7 7 7 6 5 4 4 4 6 7 8 6 5 4 4 3 3 3 3 3 4 4 5 5
1 1 1 1 1 1 1 2 2 3 4 4 5 7 7 7 6 7 7 8 9 9 8 7 6 5 5 5 6 7 7 6 5 4 4 4 3 3 3 3 4 5 5 5
1 1 1 0 0 1 1 1 2 3 4 5 5 5 5 6 6 7 9 10 10 10 9 8 7 6 5 5 6 6 6 5 5 4 4 4 4 4 3 4 5 5 4 4
1 1 1 1 1 1 2 2 3 4 6 6 5 4 4 5 6 7 8 9 9 9 8 7 7 6 6 5 6 6 6 6 6 6 5 5 5 4 3 4 4 4 3 3
2 2 2 2 2 3 3 4 5 6 6 6 5 4 4 4 5 6 5 5 6 7 7 7 7 7 6 6 6 6 7 7 7 7 7 6 5 4 4 4 4 3 3 2
2 2 3 3 3 4 4 4 5 5 5 5 4 4 3 3 4 4 3 3 4 5 7 7 8 8 7 6 6 7 8 8 9 8 7 6 5 5 5 5 4 3 3 2
2 2 3 4 4 4 3 3 4 4 4 4 4 3 3 3 3 3 2 3 4 5 7 8 9 8 6 5 6 7 8 9 9 9 7 6 5 5 5 5 4 3 2 2
3 2 2 4 5 4 2 2 3 3 4 4 4 3 3 3 3 3 2 2 4 6 8 9 9 7 5 5 5 7 8 9 9 9 7 6 5 5 4 4 3 2 1 1
Wind_Speed
14 13 13 13 15 15 15 14 11 9 8 8 9 8 7 8 9 9 9 8 8 8 9 10 10 10 10 9 8 7 6 5 4 3 3 2 2 2 2 2 2 2 1 1
13 16 15 14 14 14 16 15 13 10 9 7 8 9 9 10 9 8 8 8 9 9 9 10 10 10 10 9 9 8 7 6 5 3 2 2 2 2 2 2 2 2 2 1
16 11 13 15 14 14 15 13 13 11 8 9 9 10 11 11 9 9 8 8 8 9 10 10 11 11 11 11 9 8 7 7 6 5 3 2 2 1 2 2 2 2 2 2
14 15 13 14 14 14 13 12 13 13 12 9 10 10 10 9 9 9 8 7 7 8 10 11 11 11 11 11 10 8 8 7 6 5 4 4 3 2 2 2 2 2 2 2
13 14 14 14 13 13 13 11 12 13 13 12 11 11 9 10 10 9 8 7 6 7 9 8 10 11 10 10 11 9 8 7 6 5 4 3 3 2 2 2 2 2 2 2
15 13 13 13 12 12 11 12 13 13 11 13 13 12 9 7 9 8 8 7 6 6 7 7 9 9 9 10 10 10 9 7 6 6 5 4 3 2 2 2 2 2 2 2
16 16 13 12 12 12 11 10 8 9 10 12 12 12 6 4 4 7 7 7 7 6 7 7 8 8 9 9 9 9 9 8 7 6 5 4 3 3 3 2 2 2 1 1
14 14 13 12 13 11 12 13 10 9 9 8 11 10 5 5 4 5 7 7 7 6 7 7 6 7 6 7 8 8 8 8 7 6 5 4 4 3 2 2 1 1 1 1
9 11 12 13 13 14 14 13 14 13 13 11 8 7 7 7 6 5 7 7 7 7 7 8 7 6 6 6 6 7 7 6 6 6 6 5 4 3 2 2 1 1 1 1
12 11 11 11 11 15 16 13 9 11 10 11 8 7 5 9 8 6 5 6 7 7 8 7 6 6 6 6 6 6 6 6 5 5 5 5 4 3 2 2 2 1 1 1
11 10 10 10 12 13 13 14 11 9 9 10 8 3 0 6 6 6 5 5 6 8 8 7 6 6 6 6 7 6 6 5 4 4 4 3 3 3 3 2 2 2 1 1
8 8 9 11 10 11 12 13 12 9 9 10 9 3 3 2 5 5 5 5 6 7 7 8 7 6 5 6 6 5 5 5 4 4 3 3 3 3 3 2 2 2 1 1
5 6 8 10 11 12 11 11 12 11 9 9 10 5 2 2 3 4 4 5 5 7 7 7 6 5 5 5 5 5 4 4 4 4 4 4 3 3 3 2 2 2 1 1
6 7 10 11 7 8 11 12 12 12 10 9 10 6 2 2 1 3 4 4 5 7 6 6 5 5 4 4 4 4 4 4 4 4 4 3 3 3 3 3 2 2 2 1
5 9 12 13 12 10 11 12 12 13 12 10 8 6 2 1 1 2 3 3 5 6 6 5 5 4 4 4 4 4 4 4 4 4 3 3 3 3 3 2 2 2 2 2
4 8 11 14 14 12 13 13 13 13 12 12 9 5 1 3 2 3 3 3 3 3 4 5 4 5 4 4 4 4 3 4 4 3 3 3 3 3 3 2 2 2 2 1
6 7 10 12 13 12 14 11 11 10 9 8 7 3 1 3 3 3 2 2 2 2 3 3 3 3 4 3 3 3 4 4 3 3 3 3 4 4 3 3 3 2 2 1
7 7 7 10 11 13 7 5 6 6 6 6 4 2 1 2 3 3 3 3 3 2 2 2 2 2 3 3 3 2 3 4 3 3 3 3 4 4 3 2 2 2 2 1
7 7 7 8 10 10 5 3 4 6 5 4 2 1 1 1 2 3 4 4 4 4 3 3 2 2 2 3 3 3 3 3 3 3 3 3 3 3 3 3 2 2 2 2
8 6 7 8 10 8 5 4 5 5 5 0 1 1 0 2 2 2 5 5 5 4 3 2 2 2 2 2 2 3 3 3 3 3 3 3 2 3 3 3 2 2 2 2
9 8 10 11 10 6 4 5 5 6 1 3 2 1 1 2 2 3 4 5 5 4 3 2 2 2 1 2 2 2 2 2 2 2 2 2 2 2 2 2 2 2 3 3
6 7 8 9 9 6 3 4 2 3 3 3 3 3 3 2 3 3 4 3 4 3 2 2 2 2 1 2 2 2 2 1 1 1 2 2 2 2 2 2 2 2 3 3
4 2 3 3 3 2 4 4 4 3 3 3 2 2 2 1 3 3 3 3 3 2 2 1 2 1 1 1 2 2 1 1 1 1 1 2 2 2 2 2 3 3 3 3
2 1 3 3 1 2 4 4 4 2 1 1 1 1 0 1 2 2 2 2 2 2 1 1 1 1 0 0 1 0 0 1 1 1 1 2 2 2 2 2 2 2 2 2
4 3 4 4 3 3 3 4 3 2 3 2 1 1 1 1 1 1 1 1 1 1 1 0 0 1 1 1 1 0 0 1 1 2 2 2 2 2 1 1 1 1 0 0
3 3 4 3 2 3 4 3 3 3 3 2 1 1 1 1 2 1 1 1 1 1 1 0 0 1 1 1 1 0 0 1 1 1 2 2 2 2 2 2 1 3 2 2
Wind_Direction
216 228 232 229 232 246 261 266 262 241 220 218 224 232 235 226 205 208 196 184 180 183 168 156 155 153 149 145 146 150 155 151 152 157 169 174 168 172 148 139 131 143 153 138
225 227 237 243 244 246 257 263 268 262 239 226 224 233 234 239 217 210 195 189 185 181 164 155 157 157 155 155 156 158 161 156 162 164 173 176 172 176 157 143 145 159 164 170
229 234 232 240 244 243 250 258 266 266 258 242 239 240 236 233 221 203 198 196 187 178 172 165 165 164 163 163 165 167 164 161 172 171 172 168 167 181 156 154 159 175 174 164
237 239 236 236 243 244 248 252 262 267 265 251 240 245 233 220 211 203 190 187 181 178 172 174 170 166 167 167 166 162 160 166 170 171 177 179 178 178 165 162 154 167 182 177
235 233 237 238 239 243 254 258 259 259 261 263 250 248 236 213 204 201 185 183 175 177 173 172 173 168 168 166 166 163 163 166 167 176 177 183 190 181 159 163 153 175 184 179
247 240 237 244 245 244 254 260 260 254 253 251 249 251 241 219 204 185 170 167 159 165 162 167 168 161 168 167 163 163 162 165 168 173 180 184 189 184 171 186 173 182 170 165
237 238 231 235 243 235 238 246 248 240 235 240 236 241 234 211 193 170 160 157 156 159 158 156 158 160 166 165 160 160 159 163 166 170 179 180 189 197 205 201 187 180 164 154
232 231 221 225 238 236 229 234 239 246 246 245 233 231 212 165 157 150 151 148 148 158 145 141 156 156 156 154 148 148 154 160 167 170 173 180 192 204 207 210 194 177 162 143
243 239 225 220 227 241 234 236 242 253 263 262 241 212 183 171 166 160 151 150 154 151 138 137 147 149 142 141 135 146 149 156 167 172 172 180 190 193 187 181 185 166 156 146
262 266 237 224 219 228 241 244 249 252 261 266 257 235 204 173 168 167 158 152 150 138 136 135 133 129 134 132 131 130 141 151 161 171 181 177 178 180 182 169 152 142 126 83
252 262 250 225 220 227 229 238 245 257 261 263 264 247 316 150 153 157 159 151 145 138 137 135 134 130 130 132 135 134 138 150 159 168 170 163 162 163 161 166 155 138 135 134
251 257 257 239 231 237 234 238 237 241 252 265 272 262 26 86 133 140 137 130 124 128 129 130 129 134 132 132 134 138 147 155 159 157 149 149 144 151 158 159 149 143 151 170
261 260 250 234 221 222 236 240 247 243 246 248 256 240 144 89 110 123 122 126 130 124 121 121 124 130 125 127 130 135 145 149 148 143 147 147 150 150 156 161 164 162 173 179
263 252 256 251 248 229 235 241 246 249 246 245 246 239 163 86 75 102 98 119 131 121 122 124 126 124 122 123 127 135 140 142 139 137 142 151 158 160 165 162 164 165 170 170
263 252 256 266 271 267 247 241 238 243 250 255 253 236 209 155 14 69 97 101 122 124 129 131 132 130 134 133 137 142 143 137 131 137 143 144 151 163 162 161 158 160 174 173
244 270 266 262 257 259 257 247 239 242 247 251 255 252 158 108 70 56 61 82 85 111 130 138 142 141 144 146 147 147 150 141 142 151 151 148 155 149 151 157 156 163 168 158
237 250 262 260 254 250 247 245 241 243 251 257 256 252 153 93 85 71 52 83 80 101 110 124 142 145 153 156 151 161 153 148 152 154 156 162 159 150 153 165 154 155 154 160
245 245 253 261 259 248 241 246 251 250 264 266 255 243 172 106 89 70 57 56 58 71 81 90 96 131 143 145 154 161 164 160 160 160 163 175 169 155 153 152 157 161 164 185
224 236 251 259 255 247 254 279 266 245 259 292 264 310 56 87 129 106 66 50 64 72 76 91 100 111 134 148 159 163 168 168 170 173 180 185 172 159 159 153 158 163 181 197
208 214 242 254 259 248 255 282 289 253 229 270 69 86 342 281 235 78 48 46 47 59 64 85 114 121 134 149 156 165 175 182 190 192 190 182 174 167 162 157 174 185 200 206
208 213 230 248 257 258 299 312 292 244 239 5 11 45 14 352 1 53 43 48 50 59 64 77 96 116 128 143 148 166 179 197 206 196 180 163 162 167 168 170 184 195 208 211
222 227 230 241 248 250 325 307 331 30 40 28 41 45 50 48 75 73 56 52 60 55 55 91 106 115 126 154 163 174 188 197 201 186 181 164 175 201 170 168 193 206 210 218
230 236 251 263 268 18 23 31 19 38 38 32 41 46 53 36 82 81 72 59 60 58 44 92 121 127 125 166 170 181 187 185 188 182 182 181 194 203 175 195 212 218 216 228
243 280 270 279 280 335 358 12 355 14 0 336 7 49 351 58 81 76 73 65 57 45 37 78 142 151 140 178 171 185 180 177 179 187 199 205 204 203 199 222 226 220 216 223
296 290 272 265 296 304 287 301 320 347 351 348 313 117 98 101 108 87 86 85 76 50 36 42 199 184 204 201 181 212 205 185 213 214 222 225 218 201 198 208 270 249 83 214
302 306 281 281 325 294 298 316 332 343 326 311 331 67 98 134 128 113 92 83 91 86 67 61 250 224 225 218 200 193 170 180 208 219 228 227 214 201 208 189 163 51 67 81